Regional Weather Roundup
Issued by NWS

Home | Current Version | Previous Version | Graphics & Text | Print | Product List | Glossary Off
Versions: 1 2 3 4 5 6 7 8 9 10 11 12 13 14 15 16 17 18 19 20 21 22 23 24 25 26 27 28 29 30 31 32 33 34 35 36 37 38 39 40 41 42 43 44 45 46 47 48 49 50

000
ASUS44 KFWD 270715
RWRTX
NORTH TEXAS HOURLY WEATHER ROUNDUP
NATIONAL WEATHER SERVICE FORT WORTH TX
200 AM CDT MON JUN 27 2016

NOTE: "FAIR" INDICATES FEW OR NO CLOUDS BELOW 12,000 FEET WITH NO
SIGNIFICANT WEATHER AND/OR OBSTRUCTIONS TO VISIBILITY.

TXZ118-119-270800-
DALLAS/FORT WORTH METROPLEX

CITY           SKY/WX    TMP DP  RH WIND       PRES   REMARKS
DFW AIRPORT    MOCLDY    83  72  69 S7        30.07F
DALLAS LOVE    PTCLDY    85  72  65 S6        30.07F HX  90
FTW MEACHAM    CLEAR     83  71  67 SE8       30.07F
DAL-EXECUTIVE  CLEAR     81  72  74 S5        30.07F
FTW-ALLIANCE   PTCLDY    79  72  79 S5        30.07F
FTW-NAS-JRB    CLEAR     83  70  64 S6        30.08F
FTW-SPINKS     CLEAR     79  71  77 S5        30.10S
ARLINGTON      CLEAR     83  72  69 S6        30.08F
GRAND PRAIRIE  CLEAR     82  71  68 CALM      30.09F
ADDISON        PTCLDY    85  73  69 S5        30.09F HX  91
MESQUITE       CLEAR     76  75  96 S3        30.07F
LANCASTER      CLEAR     78  72  82 CALM      30.08F
$$

TXZ091>094-102>105-117-120-121-131>134-270800-
NORTH CENTRAL TEXAS

CITY           SKY/WX    TMP DP  RH WIND       PRES   REMARKS
SHRMAN/DENISON PTCLDY    78  69  73 S5        30.10F
GAINESVILLE    CLOUDY    73  67  80 CALM      30.11F
BOWIE          PTCLDY    75  67  76 CALM      30.12S
BRIDGEPORT     MOCLDY    79  72  79 N3        30.11S
DECATUR        MOCLDY    78  66  66 NE8       30.12R
DENTON         CLOUDY    80  71  74 N9        30.09R
MCKINNEY       MOCLDY    82  72  71 N13G21    30.08S
GREENVILLE     CLEAR     77  73  88 CALM      30.08S
ROCKWALL       CLEAR     80  74  84 S3        30.07S
TERRELL        CLEAR     78  73  84 S6        30.07F
WAXAHACHIE     CLEAR     77  74  88 SE3       30.10F
CLEBURNE       CLEAR     79  75  89 S5        30.10F
GRANBURY       CLEAR     81  71  72 SE3       30.10S
$$

TXZ083>090-098>101-113>116-127>130-139>142-154-155-270800-
WESTERN NORTH TEXAS

CITY           SKY/WX    TMP DP  RH WIND       PRES   REMARKS
WICHITA FALLS  PTCLDY    73  68  84 SE8       30.10F
WF-KICKAPOO    PTCLDY    74  68  80 E5        30.11F
VERNON         PTCLDY    74  65  73 SE5       30.11F
ABILENE        PTCLDY    74  69  85 S5        30.13F
ABILENE-DYESS  PTCLDY    72  68  88 CALM      30.12F
BRECKENRIDGE   CLEAR     79  66  64 S7        30.10F
GRAHAM         CLEAR     75  69  81 E3        30.10S
MINERAL WELLS  PTCLDY    77  70  79 S6        30.08F
STEPHENVILLE   CLOUDY    77  68  74 CALM      30.14F
COMANCHE       CLOUDY    76  70  81 SE3       30.14F
BROWNWOOD      CLOUDY    77  70  78 E3        30.13F
COLEMAN        CLOUDY    76  68  76 CALM      30.15S
$$

TXZ143>147-156>162-174-175-270800-
CENTRAL TEXAS

CITY           SKY/WX    TMP DP  RH WIND       PRES   REMARKS
WACO           CLEAR     79  71  76 SE5       30.09F
WACO-MCGREGOR  CLEAR     77  72  84 S5        30.10F
HILLSBORO      CLEAR     79  72  78 SE6       30.09F
CORSICANA      CLEAR     81  75  82 S7        30.09F
MEXIA          CLEAR     78  74  88 S9        30.09F
CAMERON        CLEAR     79  74  85 S3        30.09F
TEMPLE         CLEAR     78  72  81 SE7       30.10F
KILLEEN        CLOUDY    78  71  79 S6        30.11F
KILLEEN-SKYLRK CLEAR     79  72  79 S7        30.11F
FORT HOOD      MOCLDY    78  71  80 S6        30.09F
GATESVILLE     PTCLDY    79  72  78 CALM      30.12F
HAMILTON       CLOUDY    77  70  79 S3        30.14F
LAMPASAS       CLOUDY    78  72  81 CALM      30.12F
$$

TXZ095>097-106>112-122>126-135>138-148>153-164>167-270800-
EAST TEXAS

CITY           SKY/WX    TMP DP  RH WIND       PRES   REMARKS
PARIS          PTCLDY    81  66  61 W5        30.08S
SULPHUR SPRNGS CLEAR     81  73  78 CALM      30.09F
MOUNT PLEASANT CLEAR     76  76  99 SE3       30.08F
GILMER         CLEAR     77  74  90 CALM      30.07F
MINEOLA        CLEAR     75  73  94 CALM      30.08F
TYLER          CLEAR     78  73  84 S3        30.08F
LONGVIEW       CLEAR     77  74  90 CALM      30.07F
MARSHALL       CLEAR     76  74  92 CALM      30.09F
ATHENS         CLEAR     73  73 100 CALM      30.07F
PALESTINE      CLEAR     76  75  95 CALM      30.10F
JACKSONVILLE   CLEAR     79  74  85 CALM      30.11F
HENDERSON      CLEAR     75  74  96 CALM      30.10F
CENTER         PTSUNNY   79  78  95 CALM      30.08S
NACOGDOCHES    CLEAR     75  73  94 CALM      30.09S
LUFKIN         CLEAR     76  75  97 CALM      30.08F
$$

SUPPLEMENTAL OBSERVATIONS (CENTRAL)

CITY           SKY/WX    TMP DP  RH WIND       PRES   REMARKS
LAKE TEXOMA      N/A     79  70  73 S1          N/A
CADDO GRASSLND   N/A     77  70  78 S1          N/A
LAKE LIMESTONE   N/A     75  72  88 CALM        N/A
MCGREGOR         N/A     79  72  78 S5          N/A
TEMPLE           N/A     79  72  78 E3          N/A
$$

SUPPLEMENTAL OBSERVATIONS (WEST)

CITY           SKY/WX    TMP DP  RH WIND       PRES   REMARKS
MILLERS CREEK    N/A     75  68  78 SE3         N/A
POSSUM KINGDOM   N/A     79  66  65 E2          N/A
LBJ GRASSLAND    N/A     79  68  69 NE5         N/A
GRANBURY         N/A     81  72  74 S3          N/A
COMANCHE         N/A     75  66  73 S5          N/A
HAMBY            N/A     75  66  73 S3          N/A
IVIE RESERVOIR   N/A     75  68  78 E3          N/A
COLORADO BEND    N/A     75  66  73 CALM        N/A
$$

SUPPLEMENTAL OBSERVATIONS (EAST)

CITY           SKY/WX    TMP DP  RH WIND       PRES   REMARKS
TEXARKANA        N/A     75  73  94 CALM        N/A
CADDO LAKE       N/A     73  70  88 CALM        N/A
LUFKIN           N/A     77  73  88 MISG        N/A
$$

SUPPLEMENTAL OBSERVATIONS ARE A COLLECTION OF AUTOMATED INSTRUMENTS
THAT ARE MAINTAINED BY A VARIETY OF FEDERAL AND STATE AGENCIES.
CERTAIN ELEMENTS...SUCH AS HUMIDITY VALUES AND SUSTAINED WIND
SPEEDS...MAY BE APPROXIMATED.




USA.gov is the U.S. government's official web portal to all federal, state and local government web resources and services.